Time,TemperatureF,DewpointF,PressureIn,WindDirection,WindDirectionDegrees,WindSpeedMPH,WindSpeedGustMPH,Humidity,HourlyPrecipIn,Conditions,Clouds,dailyrainin,SoftwareType,DateUTC
2013-02-09 00:00:00,29.7,28.7,29.73,NW,323,7.0,14.0,96,0.00,,---,0.00,VWS V14.01,2013-02-09 05:00:00,
2013-02-09 00:05:00,29.7,28.7,29.73,NNW,346,8.0,8.0,96,0.00,,---,0.00,VWS V14.01,2013-02-09 05:05:00,
2013-02-09 00:10:00,29.7,28.7,29.74,NW,326,12.0,13.0,96,0.00,,---,0.00,VWS V14.01,2013-02-09 05:10:00,
2013-02-09 00:15:00,29.7,28.7,29.73,North,5,4.0,6.0,96,0.00,,---,0.00,VWS V14.01,2013-02-09 05:15:00,
2013-02-09 00:20:00,29.7,28.7,29.73,NNW,348,10.0,19.0,96,0.00,,---,0.00,VWS V14.01,2013-02-09 05:20:00,
2013-02-09 00:25:00,29.6,28.6,29.73,NNW,337,10.0,13.0,96,0.00,,---,0.00,VWS V14.01,2013-02-09 05:25:00,
2013-02-09 00:30:00,29.6,28.6,29.73,NNE,25,4.0,9.0,96,0.00,,---,0.00,VWS V14.01,2013-02-09 05:30:00,
2013-02-09 00:35:00,29.4,28.4,29.74,North,358,4.0,10.0,96,0.00,,---,0.00,VWS V14.01,2013-02-09 05:35:00,
2013-02-09 00:40:00,29.2,28.2,29.74,NW,319,18.0,18.0,96,0.00,,---,0.00,VWS V14.01,2013-02-09 05:40:00,
2013-02-09 00:45:00,29.1,28.1,29.74,NW,321,6.0,6.0,96,0.00,,---,0.00,VWS V14.01,2013-02-09 05:45:00,
2013-02-09 00:50:00,28.9,27.6,29.74,NNE,25,3.0,6.0,95,0.00,,---,0.00,VWS V14.01,2013-02-09 05:50:00,
2013-02-09 00:55:00,28.8,27.5,29.74,NNW,327,13.0,13.0,95,0.00,,---,0.00,VWS V14.01,2013-02-09 05:55:00,
2013-02-09 01:00:00,28.7,27.5,29.74,NNE,13,6.0,7.0,95,0.00,,---,0.00,VWS V14.01,2013-02-09 06:00:00,
2013-02-09 01:05:00,28.5,27.2,29.74,North,357,8.0,9.0,95,0.00,,---,0.00,VWS V14.01,2013-02-09 06:05:00,
2013-02-09 01:10:00,28.4,27.4,29.74,North,351,16.0,19.0,96,0.00,,---,0.00,VWS V14.01,2013-02-09 06:10:00,
2013-02-09 01:15:00,28.3,27.0,29.74,North,11,7.0,8.0,95,0.00,,---,0.00,VWS V14.01,2013-02-09 06:15:00,
2013-02-09 01:20:00,28.2,27.0,29.75,North,7,4.0,12.0,95,0.00,,---,0.00,VWS V14.01,2013-02-09 06:20:00,
2013-02-09 01:25:00,28.1,27.1,29.75,North,9,10.0,10.0,96,0.00,,---,0.00,VWS V14.01,2013-02-09 06:25:00,
2013-02-09 01:30:00,28.1,27.1,29.75,North,2,12.0,12.0,96,0.00,,---,0.00,VWS V14.01,2013-02-09 06:30:00,
2013-02-09 01:35:00,28.1,27.1,29.76,NNW,337,6.0,6.0,96,0.00,,---,0.00,VWS V14.01,2013-02-09 06:35:00,
2013-02-09 01:40:00,28.1,27.1,29.76,NNE,20,5.0,6.0,96,0.00,,---,0.00,VWS V14.01,2013-02-09 06:40:00,
2013-02-09 01:45:00,28.1,27.1,29.75,North,358,4.0,4.0,96,0.00,,---,0.00,VWS V14.01,2013-02-09 06:45:00,
2013-02-09 01:50:00,28.1,27.1,29.76,North,8,5.0,9.0,96,0.00,,---,0.00,VWS V14.01,2013-02-09 06:50:00,
2013-02-09 01:55:00,28.1,27.1,29.76,North,9,5.0,7.0,96,0.00,,---,0.00,VWS V14.01,2013-02-09 06:55:00,
2013-02-09 02:00:00,28.1,27.1,29.76,North,357,7.0,7.0,96,0.00,,---,0.00,VWS V14.01,2013-02-09 07:00:00,
2013-02-09 02:05:00,28.1,27.1,29.75,North,351,2.0,3.0,96,0.00,,---,0.00,VWS V14.01,2013-02-09 07:05:00,
2013-02-09 02:10:00,28.1,27.1,29.76,NNW,334,2.0,4.0,96,0.00,,---,0.00,VWS V14.01,2013-02-09 07:10:00,
2013-02-09 02:15:00,28.1,27.1,29.77,NNW,329,3.0,4.0,96,0.00,,---,0.00,VWS V14.01,2013-02-09 07:15:00,
2013-02-09 02:20:00,28.2,27.2,29.77,NW,317,3.0,5.0,96,0.00,,---,0.00,VWS V14.01,2013-02-09 07:20:00,
2013-02-09 02:25:00,28.2,27.2,29.77,NNW,344,2.0,3.0,96,0.00,,---,0.00,VWS V14.01,2013-02-09 07:25:00,
2013-02-09 02:30:00,28.3,27.3,29.77,NNW,331,5.0,7.0,96,0.00,,---,0.00,VWS V14.01,2013-02-09 07:30:00,
2013-02-09 02:35:00,28.4,27.4,29.77,WNW,300,3.0,3.0,96,0.00,,---,0.00,VWS V14.01,2013-02-09 07:35:00,
2013-02-09 02:40:00,28.4,27.4,29.77,NNW,328,4.0,4.0,96,0.00,,---,0.00,VWS V14.01,2013-02-09 07:40:00,
2013-02-09 02:45:00,28.5,27.5,29.77,NNW,333,4.0,6.0,96,0.00,,---,0.00,VWS V14.01,2013-02-09 07:45:00,
2013-02-09 02:50:00,28.5,27.5,29.77,NW,307,2.0,3.0,96,0.00,,---,0.00,VWS V14.01,2013-02-09 07:50:00,
2013-02-09 02:55:00,28.5,27.5,29.77,NNW,335,3.0,4.0,96,0.00,,---,0.00,VWS V14.01,2013-02-09 07:55:00,
2013-02-09 03:00:00,28.6,27.6,29.77,NW,305,3.0,4.0,96,0.00,,---,0.00,VWS V14.01,2013-02-09 08:00:00,
2013-02-09 03:05:00,28.6,27.6,29.77,NW,317,1.0,2.0,96,0.00,,---,0.00,VWS V14.01,2013-02-09 08:05:00,
2013-02-09 03:10:00,28.7,27.7,29.78,WNW,298,3.0,3.0,96,0.00,,---,0.00,VWS V14.01,2013-02-09 08:10:00,
2013-02-09 03:15:00,28.7,27.7,29.78,NW,321,3.0,3.0,96,0.00,,---,0.00,VWS V14.01,2013-02-09 08:15:00,
2013-02-09 03:20:00,28.8,27.8,29.78,WNW,292,5.0,7.0,96,0.00,,---,0.00,VWS V14.01,2013-02-09 08:20:00,
2013-02-09 03:25:00,28.8,27.8,29.78,NW,315,5.0,6.0,96,0.00,,---,0.00,VWS V14.01,2013-02-09 08:25:00,
2013-02-09 03:30:00,28.9,27.9,29.78,NW,325,4.0,4.0,96,0.00,,---,0.00,VWS V14.01,2013-02-09 08:30:00,
2013-02-09 03:35:00,29.0,28.0,29.78,NW,321,2.0,2.0,96,0.00,,---,0.00,VWS V14.01,2013-02-09 08:35:00,
2013-02-09 03:40:00,29.1,28.1,29.78,NW,314,4.0,5.0,96,0.00,,---,0.00,VWS V14.01,2013-02-09 08:40:00,
2013-02-09 03:44:00,29.2,28.2,29.79,NNW,333,2.0,2.0,96,0.00,,---,0.00,VWS V14.01,2013-02-09 08:44:00,
2013-02-09 03:45:00,30.4,29.6,29.81,North,3,5.0,13.0,97,0.00,,---,0.00,VWS V14.01,2013-02-09 08:45:00,
2013-02-09 03:49:00,29.4,28.4,29.79,NW,319,8.0,8.0,96,0.00,,---,0.00,VWS V14.01,2013-02-09 08:49:00,
2013-02-09 03:50:00,30.4,29.6,29.81,WNW,298,7.0,15.0,97,0.00,,---,0.00,VWS V14.01,2013-02-09 08:50:00,
2013-02-09 03:54:00,29.5,28.5,29.79,North,352,5.0,5.0,96,0.00,,---,0.00,VWS V14.01,2013-02-09 08:54:00,
2013-02-09 03:55:00,30.4,29.6,29.82,NW,310,8.0,12.0,97,0.00,,---,0.00,VWS V14.01,2013-02-09 08:55:00,
2013-02-09 03:59:00,29.6,28.6,29.80,North,5,4.0,11.0,96,0.00,,---,0.00,VWS V14.01,2013-02-09 08:59:00,
2013-02-09 04:00:00,30.2,29.2,29.82,NW,320,11.0,22.0,96,0.00,,---,0.00,VWS V14.01,2013-02-09 09:00:00,
2013-02-09 04:04:00,29.7,29.0,29.80,NW,319,4.0,10.0,97,0.00,,---,0.00,VWS V14.01,2013-02-09 09:04:00,
2013-02-09 04:05:00,29.4,28.4,29.82,NW,309,16.0,19.0,96,0.00,,---,0.00,VWS V14.01,2013-02-09 09:05:00,
2013-02-09 04:09:00,29.8,29.0,29.80,WNW,302,4.0,9.0,97,0.00,,---,0.00,VWS V14.01,2013-02-09 09:09:00,
2013-02-09 04:10:00,28.9,27.9,29.82,NW,319,11.0,16.0,96,0.00,,---,0.00,VWS V14.01,2013-02-09 09:10:00,
2013-02-09 04:14:00,29.9,29.1,29.80,WNW,282,4.0,8.0,97,0.00,,---,0.00,VWS V14.01,2013-02-09 09:14:00,
2013-02-09 04:15:00,28.7,27.7,29.83,NNW,327,6.0,15.0,96,0.00,,---,0.00,VWS V14.01,2013-02-09 09:15:00,
2013-02-09 04:19:00,30.0,29.0,29.80,NW,309,5.0,9.0,96,0.00,,---,0.00,VWS V14.01,2013-02-09 09:19:00,
2013-02-09 04:20:00,28.6,27.6,29.83,WNW,302,8.0,16.0,96,0.00,,---,0.00,VWS V14.01,2013-02-09 09:20:00,
2013-02-09 04:24:00,30.1,29.1,29.81,NW,304,5.0,10.0,96,0.00,,---,0.00,VWS V14.01,2013-02-09 09:24:00,
2013-02-09 04:25:00,28.3,27.3,29.84,WNW,302,7.0,21.0,96,0.00,,---,0.00,VWS V14.01,2013-02-09 09:25:00,
2013-02-09 04:29:00,30.2,29.2,29.81,NW,311,12.0,12.0,96,0.00,,---,0.00,VWS V14.01,2013-02-09 09:29:00,
2013-02-09 04:30:00,27.9,26.7,29.84,WNW,301,19.0,19.0,95,0.00,,---,0.00,VWS V14.01,2013-02-09 09:30:00,
2013-02-09 04:34:00,30.3,29.5,29.81,NW,322,3.0,13.0,97,0.00,,---,0.00,VWS V14.01,2013-02-09 09:34:00,
2013-02-09 04:35:00,27.6,26.4,29.84,NW,313,8.0,24.0,95,0.00,,---,0.00,VWS V14.01,2013-02-09 09:35:00,
2013-02-09 04:39:00,30.3,29.5,29.81,NNW,327,4.0,10.0,97,0.00,,---,0.00,VWS V14.01,2013-02-09 09:39:00,
2013-02-09 04:40:00,27.1,25.9,29.84,NW,306,8.0,17.0,95,0.00,,---,0.00,VWS V14.01,2013-02-09 09:40:00,
2013-02-09 04:44:00,30.4,29.6,29.81,NW,324,0.0,13.0,97,0.00,,---,0.00,VWS V14.01,2013-02-09 09:44:00,
2013-02-09 04:45:00,26.9,25.7,29.85,NW,306,13.0,19.0,95,0.00,,---,0.00,VWS V14.01,2013-02-09 09:45:00,
2013-02-09 04:49:00,30.4,29.6,29.81,WNW,288,9.0,15.0,97,0.00,,---,0.00,VWS V14.01,2013-02-09 09:49:00,
2013-02-09 04:50:00,26.7,25.5,29.85,NW,317,10.0,19.0,95,0.00,,---,0.00,VWS V14.01,2013-02-09 09:50:00,
2013-02-09 04:54:00,30.4,29.6,29.82,WNW,296,10.0,12.0,97,0.00,,---,0.00,VWS V14.01,2013-02-09 09:54:00,
2013-02-09 04:55:00,26.6,25.4,29.85,NW,305,14.0,17.0,95,0.00,,---,0.00,VWS V14.01,2013-02-09 09:55:00,
2013-02-09 04:59:00,30.2,29.5,29.82,NW,305,8.0,22.0,97,0.00,,---,0.00,VWS V14.01,2013-02-09 09:59:00,
2013-02-09 05:00:00,26.5,25.3,29.86,WNW,302,13.0,17.0,95,0.00,,---,0.00,VWS V14.01,2013-02-09 10:00:00,
2013-02-09 05:04:00,29.5,28.5,29.82,WNW,302,7.0,19.0,96,0.00,,---,0.00,VWS V14.01,2013-02-09 10:04:00,
2013-02-09 05:05:00,26.3,25.1,29.86,NW,311,8.0,17.0,95,0.00,,---,0.00,VWS V14.01,2013-02-09 10:05:00,
2013-02-09 05:09:00,29.0,28.0,29.82,WNW,288,12.0,16.0,96,0.00,,---,0.00,VWS V14.01,2013-02-09 10:09:00,
2013-02-09 05:10:00,26.2,25.0,29.86,WNW,295,8.0,18.0,95,0.00,,---,0.00,VWS V14.01,2013-02-09 10:10:00,
2013-02-09 05:14:00,28.7,27.7,29.83,NW,311,8.0,15.0,96,0.00,,---,0.00,VWS V14.01,2013-02-09 10:14:00,
2013-02-09 05:15:00,26.2,24.7,29.87,NW,311,6.0,20.0,94,0.00,,---,0.00,VWS V14.01,2013-02-09 10:15:00,
2013-02-09 05:19:00,28.6,27.6,29.83,North,349,9.0,16.0,96,0.00,,---,0.00,VWS V14.01,2013-02-09 10:19:00,
2013-02-09 05:20:00,26.1,24.6,29.87,NW,319,9.0,22.0,94,0.00,,---,0.00,VWS V14.01,2013-02-09 10:20:00,
2013-02-09 05:24:00,28.3,27.3,29.84,NW,319,9.0,21.0,96,0.00,,---,0.00,VWS V14.01,2013-02-09 10:24:00,
2013-02-09 05:25:00,26.1,24.6,29.87,NW,310,8.0,14.0,94,0.00,,---,0.00,VWS V14.01,2013-02-09 10:25:00,
2013-02-09 05:29:00,27.9,26.9,29.84,NW,313,8.0,19.0,96,0.00,,---,0.00,VWS V14.01,2013-02-09 10:29:00,
2013-02-09 05:30:00,26.1,24.6,29.87,NW,307,9.0,19.0,94,0.00,,---,0.00,VWS V14.01,2013-02-09 10:30:00,
2013-02-09 05:34:00,27.6,26.4,29.84,NW,313,10.0,24.0,95,0.00,,---,0.00,VWS V14.01,2013-02-09 10:34:00,
2013-02-09 05:35:00,26.1,24.4,29.88,NW,311,9.0,18.0,93,0.00,,---,0.00,VWS V14.01,2013-02-09 10:35:00,
2013-02-09 05:39:00,27.2,26.0,29.84,WNW,290,5.0,17.0,95,0.00,,---,0.00,VWS V14.01,2013-02-09 10:39:00,
2013-02-09 05:40:00,26.0,24.3,29.89,NW,304,7.0,13.0,93,0.00,,---,0.00,VWS V14.01,2013-02-09 10:40:00,
2013-02-09 05:44:00,26.9,25.7,29.85,West,277,12.0,19.0,95,0.00,,---,0.00,VWS V14.01,2013-02-09 10:44:00,
2013-02-09 05:45:00,25.9,23.9,29.89,WNW,299,7.0,15.0,92,0.00,,---,0.00,VWS V14.01,2013-02-09 10:45:00,
2013-02-09 05:49:00,26.7,25.5,29.85,NW,317,9.0,19.0,95,0.00,,---,0.00,VWS V14.01,2013-02-09 10:49:00,
2013-02-09 05:50:00,25.9,23.9,29.89,NW,323,6.0,20.0,92,0.00,,---,0.00,VWS V14.01,2013-02-09 10:50:00,
2013-02-09 05:54:00,26.6,25.4,29.85,NW,322,9.0,15.0,95,0.00,,---,0.00,VWS V14.01,2013-02-09 10:54:00,
2013-02-09 05:55:00,25.8,23.8,29.89,WNW,301,13.0,17.0,92,0.00,,---,0.00,VWS V14.01,2013-02-09 10:55:00,
2013-02-09 05:59:00,26.5,25.3,29.86,NW,310,7.0,17.0,95,0.00,,---,0.00,VWS V14.01,2013-02-09 10:59:00,
2013-02-09 06:00:00,25.8,23.5,29.90,WNW,293,6.0,17.0,91,0.00,,---,0.00,VWS V14.01,2013-02-09 11:00:00,
2013-02-09 06:04:00,26.3,25.1,29.86,WNW,299,8.0,17.0,95,0.00,,---,0.00,VWS V14.01,2013-02-09 11:04:00,
2013-02-09 06:05:00,25.8,23.5,29.90,WNW,299,15.0,18.0,91,0.00,,---,0.00,VWS V14.01,2013-02-09 11:05:00,
2013-02-09 06:09:00,26.3,24.8,29.86,WNW,302,8.0,18.0,94,0.00,,---,0.00,VWS V14.01,2013-02-09 11:09:00,
2013-02-09 06:10:00,25.8,23.3,29.90,WNW,302,12.0,20.0,90,0.00,,---,0.00,VWS V14.01,2013-02-09 11:10:00,
2013-02-09 06:14:00,26.2,24.7,29.87,NW,318,15.0,20.0,94,0.00,,---,0.00,VWS V14.01,2013-02-09 11:14:00,
2013-02-09 06:15:00,25.7,23.2,29.90,WNW,300,6.0,17.0,90,0.00,,---,0.00,VWS V14.01,2013-02-09 11:15:00,
2013-02-09 06:19:00,26.2,24.7,29.87,NW,304,7.0,22.0,94,0.00,,---,0.00,VWS V14.01,2013-02-09 11:19:00,
2013-02-09 06:20:00,25.7,23.2,29.91,NW,311,9.0,18.0,90,0.00,,---,0.00,VWS V14.01,2013-02-09 11:20:00,
2013-02-09 06:24:00,26.1,24.6,29.87,NW,312,8.0,14.0,94,0.00,,---,0.00,VWS V14.01,2013-02-09 11:24:00,
2013-02-09 06:25:00,25.7,23.2,29.91,NW,306,8.0,19.0,90,0.00,,---,0.00,VWS V14.01,2013-02-09 11:25:00,
2013-02-09 06:29:00,26.1,24.6,29.87,NW,308,10.0,19.0,94,0.00,,---,0.00,VWS V14.01,2013-02-09 11:29:00,
2013-02-09 06:30:00,25.8,23.0,29.92,NW,311,12.0,15.0,89,0.00,,---,0.00,VWS V14.01,2013-02-09 11:30:00,
2013-02-09 06:34:00,26.1,24.4,29.88,NW,325,6.0,18.0,93,0.00,,---,0.00,VWS V14.01,2013-02-09 11:34:00,
2013-02-09 06:35:00,25.8,23.0,29.92,WNW,284,10.0,15.0,89,0.00,,---,0.00,VWS V14.01,2013-02-09 11:35:00,
2013-02-09 06:39:00,26.0,24.3,29.89,WNW,290,6.0,13.0,93,0.00,,---,0.00,VWS V14.01,2013-02-09 11:39:00,
2013-02-09 06:40:00,25.8,23.0,29.92,WNW,303,15.0,20.0,89,0.00,,---,0.00,VWS V14.01,2013-02-09 11:40:00,
2013-02-09 06:44:00,25.9,24.2,29.89,WNW,299,12.0,15.0,93,0.00,,---,0.00,VWS V14.01,2013-02-09 11:44:00,
2013-02-09 06:45:00,25.8,23.0,29.92,NW,308,4.0,16.0,89,0.00,,---,0.00,VWS V14.01,2013-02-09 11:45:00,
2013-02-09 06:49:00,25.9,23.9,29.89,WNW,303,6.0,20.0,92,0.00,,---,0.00,VWS V14.01,2013-02-09 11:49:00,
2013-02-09 06:50:00,25.8,23.0,29.93,WNW,298,9.0,18.0,89,0.00,,---,0.00,VWS V14.01,2013-02-09 11:50:00,
2013-02-09 06:54:00,25.8,23.8,29.89,NW,317,17.0,17.0,92,0.00,,---,0.00,VWS V14.01,2013-02-09 11:54:00,
2013-02-09 06:55:00,25.8,22.7,29.93,WNW,302,13.0,18.0,88,0.00,,---,0.00,VWS V14.01,2013-02-09 11:55:00,
2013-02-09 06:59:00,25.8,23.5,29.90,NW,304,14.0,16.0,91,0.00,,---,0.00,VWS V14.01,2013-02-09 11:59:00,
2013-02-09 07:00:00,25.7,22.6,29.93,NW,313,13.0,16.0,88,0.00,,---,0.00,VWS V14.01,2013-02-09 12:00:00,
2013-02-09 07:04:00,25.8,23.5,29.90,WNW,294,11.0,18.0,91,0.00,,---,0.00,VWS V14.01,2013-02-09 12:04:00,
2013-02-09 07:05:00,25.7,22.6,29.93,WNW,294,10.0,17.0,88,0.00,,---,0.00,VWS V14.01,2013-02-09 12:05:00,
2013-02-09 07:09:00,25.8,23.5,29.90,WNW,302,8.0,17.0,91,0.00,,---,0.00,VWS V14.01,2013-02-09 12:09:00,
2013-02-09 07:10:00,25.6,22.5,29.93,NNW,348,6.0,18.0,88,0.00,,---,0.00,VWS V14.01,2013-02-09 12:10:00,
2013-02-09 07:14:00,25.7,23.2,29.90,WNW,296,9.0,17.0,90,0.00,,---,0.00,VWS V14.01,2013-02-09 12:14:00,
2013-02-09 07:15:00,25.6,22.5,29.93,NW,307,9.0,18.0,88,0.00,,---,0.00,VWS V14.01,2013-02-09 12:15:00,
2013-02-09 07:19:00,25.7,23.2,29.91,WSW,254,6.0,18.0,90,0.00,,---,0.00,VWS V14.01,2013-02-09 12:19:00,
2013-02-09 07:20:00,25.4,22.4,29.94,NW,305,9.0,29.0,88,0.00,,---,0.00,VWS V14.01,2013-02-09 12:20:00,
2013-02-09 07:24:00,25.7,23.2,29.91,NW,313,14.0,19.0,90,0.00,,---,0.00,VWS V14.01,2013-02-09 12:24:00,
2013-02-09 07:25:00,25.3,22.5,29.94,WNW,301,6.0,15.0,89,0.00,,---,0.00,VWS V14.01,2013-02-09 12:25:00,
2013-02-09 07:29:00,25.7,22.9,29.92,WNW,303,9.0,15.0,89,0.00,,---,0.00,VWS V14.01,2013-02-09 12:29:00,
2013-02-09 07:30:00,25.1,22.6,29.94,WNW,286,7.0,27.0,90,0.00,,---,0.00,VWS V14.01,2013-02-09 12:30:00,
2013-02-09 07:34:00,25.8,23.0,29.92,NW,311,7.0,15.0,89,0.00,,---,0.00,VWS V14.01,2013-02-09 12:34:00,
2013-02-09 07:35:00,25.0,22.8,29.94,WNW,284,8.0,17.0,91,0.00,,---,0.00,VWS V14.01,2013-02-09 12:35:00,
2013-02-09 07:39:00,25.8,23.0,29.92,WNW,300,11.0,20.0,89,0.00,,---,0.00,VWS V14.01,2013-02-09 12:39:00,
2013-02-09 07:40:00,25.1,22.9,29.94,NW,311,9.0,20.0,91,0.00,,---,0.00,VWS V14.01,2013-02-09 12:40:00,
2013-02-09 07:44:00,25.8,23.0,29.92,NW,317,9.0,16.0,89,0.00,,---,0.00,VWS V14.01,2013-02-09 12:44:00,
2013-02-09 07:45:00,25.2,23.0,29.94,NW,326,10.0,24.0,91,0.00,,---,0.00,VWS V14.01,2013-02-09 12:45:00,
2013-02-09 07:49:00,25.8,23.0,29.93,NW,321,9.0,18.0,89,0.00,,---,0.00,VWS V14.01,2013-02-09 12:49:00,
2013-02-09 07:50:00,25.4,23.1,29.94,WNW,293,15.0,22.0,91,0.00,,---,0.00,VWS V14.01,2013-02-09 12:50:00,
2013-02-09 07:54:00,25.8,22.7,29.93,NW,305,8.0,18.0,88,0.00,,---,0.00,VWS V14.01,2013-02-09 12:54:00,
2013-02-09 07:55:00,25.6,23.1,29.94,NW,306,8.0,30.0,90,0.00,,---,0.00,VWS V14.01,2013-02-09 12:55:00,
2013-02-09 07:59:00,25.8,22.7,29.93,WNW,289,6.0,16.0,88,0.00,,---,0.00,VWS V14.01,2013-02-09 12:59:00,
2013-02-09 08:00:00,25.7,23.2,29.95,NW,315,10.0,19.0,90,0.00,,---,0.00,VWS V14.01,2013-02-09 13:00:00,
2013-02-09 08:04:00,25.7,22.6,29.93,WNW,292,12.0,17.0,88,0.00,,---,0.00,VWS V14.01,2013-02-09 13:04:00,
2013-02-09 08:05:00,26.1,23.0,29.95,WNW,303,8.0,21.0,88,0.00,,---,0.00,VWS V14.01,2013-02-09 13:05:00,
2013-02-09 08:09:00,25.7,22.6,29.93,WNW,300,9.0,18.0,88,0.00,,---,0.00,VWS V14.01,2013-02-09 13:09:00,
2013-02-09 08:10:00,26.3,23.0,29.95,NW,304,9.0,16.0,87,0.00,,---,0.00,VWS V14.01,2013-02-09 13:10:00,
2013-02-09 08:14:00,25.6,22.5,29.93,WNW,300,11.0,18.0,88,0.00,,---,0.00,VWS V14.01,2013-02-09 13:14:00,
2013-02-09 08:15:00,26.5,22.9,29.95,WNW,282,5.0,20.0,86,0.00,,---,0.00,VWS V14.01,2013-02-09 13:15:00,
2013-02-09 08:19:00,25.5,22.5,29.94,WNW,288,6.0,29.0,88,0.00,,---,0.00,VWS V14.01,2013-02-09 13:19:00,
2013-02-09 08:20:00,26.6,23.0,29.95,West,262,8.0,20.0,86,0.00,,---,0.00,VWS V14.01,2013-02-09 13:20:00,
2013-02-09 08:24:00,25.3,22.5,29.94,NNW,331,10.0,15.0,89,0.00,,---,0.00,VWS V14.01,2013-02-09 13:24:00,
2013-02-09 08:25:00,26.6,22.7,29.95,NW,309,5.0,18.0,85,0.00,,---,0.00,VWS V14.01,2013-02-09 13:25:00,
2013-02-09 08:29:00,25.1,22.6,29.94,WNW,292,8.0,27.0,90,0.00,,---,0.00,VWS V14.01,2013-02-09 13:29:00,
2013-02-09 08:30:00,26.8,22.9,29.96,North,3,11.0,22.0,85,0.00,,---,0.00,VWS V14.01,2013-02-09 13:30:00,
2013-02-09 08:34:00,25.0,22.8,29.94,WNW,292,12.0,17.0,91,0.00,,---,0.00,VWS V14.01,2013-02-09 13:34:00,
2013-02-09 08:35:00,26.8,22.9,29.96,WNW,294,13.0,20.0,85,0.00,,---,0.00,VWS V14.01,2013-02-09 13:35:00,
2013-02-09 08:39:00,25.1,22.9,29.94,NW,307,11.0,20.0,91,0.00,,---,0.00,VWS V14.01,2013-02-09 13:39:00,
2013-02-09 08:40:00,27.0,23.1,29.96,WNW,287,10.0,22.0,85,0.00,,---,0.00,VWS V14.01,2013-02-09 13:40:00,
2013-02-09 08:44:00,25.2,23.0,29.94,WNW,294,13.0,24.0,91,0.00,,---,0.00,VWS V14.01,2013-02-09 13:44:00,
2013-02-09 08:45:00,27.2,22.7,29.97,West,281,12.0,20.0,83,0.00,,---,0.00,VWS V14.01,2013-02-09 13:45:00,
2013-02-09 08:49:00,25.4,23.1,29.94,NW,308,5.0,16.0,91,0.00,,---,0.00,VWS V14.01,2013-02-09 13:49:00,
2013-02-09 08:50:00,27.6,23.1,29.97,NNW,338,11.0,16.0,83,0.00,,---,0.00,VWS V14.01,2013-02-09 13:50:00,
2013-02-09 08:54:00,25.5,23.0,29.94,WNW,292,9.0,30.0,90,0.00,,---,0.00,VWS V14.01,2013-02-09 13:54:00,
2013-02-09 08:55:00,27.9,23.4,29.98,NW,319,9.0,17.0,83,0.00,,---,0.00,VWS V14.01,2013-02-09 13:55:00,
2013-02-09 08:59:00,25.7,23.2,29.95,WNW,284,8.0,19.0,90,0.00,,---,0.00,VWS V14.01,2013-02-09 13:59:00,
2013-02-09 09:00:00,28.0,23.2,29.98,WNW,295,15.0,16.0,82,0.00,,---,0.00,VWS V14.01,2013-02-09 14:00:00,
2013-02-09 09:04:00,26.0,23.2,29.95,North,3,8.0,17.0,89,0.00,,---,0.00,VWS V14.01,2013-02-09 14:04:00,
2013-02-09 09:05:00,28.0,23.2,29.98,WNW,288,11.0,17.0,82,0.00,,---,0.00,VWS V14.01,2013-02-09 14:05:00,
2013-02-09 09:09:00,26.3,23.0,29.95,NW,311,11.0,16.0,87,0.00,,---,0.00,VWS V14.01,2013-02-09 14:09:00,
2013-02-09 09:10:00,28.2,23.1,29.98,NW,304,19.0,26.0,81,0.00,,---,0.00,VWS V14.01,2013-02-09 14:10:00,
2013-02-09 09:14:00,26.4,22.8,29.95,WNW,285,7.0,20.0,86,0.00,,---,0.00,VWS V14.01,2013-02-09 14:14:00,
2013-02-09 09:15:00,28.3,23.2,29.98,NW,313,12.0,21.0,81,0.00,,---,0.00,VWS V14.01,2013-02-09 14:15:00,
2013-02-09 09:19:00,26.6,23.0,29.95,NW,311,9.0,18.0,86,0.00,,---,0.00,VWS V14.01,2013-02-09 14:19:00,
2013-02-09 09:20:00,28.3,23.5,29.99,NW,325,8.0,31.0,82,0.00,,---,0.00,VWS V14.01,2013-02-09 14:20:00,
2013-02-09 09:24:00,26.6,22.7,29.95,NW,311,9.0,18.0,85,0.00,,---,0.00,VWS V14.01,2013-02-09 14:24:00,
2013-02-09 09:25:00,28.5,23.4,29.99,WNW,290,10.0,21.0,81,0.00,,---,0.00,VWS V14.01,2013-02-09 14:25:00,
2013-02-09 09:29:00,26.8,22.9,29.96,NNW,327,17.0,22.0,85,0.00,,---,0.00,VWS V14.01,2013-02-09 14:29:00,
2013-02-09 09:30:00,28.5,23.1,29.99,NW,309,5.0,26.0,80,0.00,,---,0.00,VWS V14.01,2013-02-09 14:30:00,
2013-02-09 09:34:00,26.7,23.1,29.96,NNW,348,12.0,20.0,86,0.00,,---,0.00,VWS V14.01,2013-02-09 14:34:00,
2013-02-09 09:35:00,28.7,23.0,29.99,WNW,303,13.0,22.0,79,0.00,,---,0.00,VWS V14.01,2013-02-09 14:35:00,
2013-02-09 09:39:00,27.0,23.1,29.96,WNW,290,14.0,22.0,85,0.00,,---,0.00,VWS V14.01,2013-02-09 14:39:00,
2013-02-09 09:40:00,29.0,23.3,29.99,NW,315,10.0,19.0,79,0.00,,---,0.00,VWS V14.01,2013-02-09 14:40:00,
2013-02-09 09:44:00,27.2,23.0,29.97,WNW,296,14.0,20.0,84,0.00,,---,0.00,VWS V14.01,2013-02-09 14:44:00,
2013-02-09 09:45:00,29.0,23.0,30.00,WNW,286,4.0,25.0,78,0.00,,---,0.00,VWS V14.01,2013-02-09 14:45:00,
2013-02-09 09:49:00,27.5,23.0,29.97,NNW,331,4.0,16.0,83,0.00,,---,0.00,VWS V14.01,2013-02-09 14:49:00,
2013-02-09 09:50:00,29.3,23.6,30.00,NNW,330,7.0,21.0,79,0.00,,---,0.00,VWS V14.01,2013-02-09 14:50:00,
2013-02-09 09:54:00,27.8,23.3,29.98,WNW,288,8.0,14.0,83,0.00,,---,0.00,VWS V14.01,2013-02-09 14:54:00,
2013-02-09 09:55:00,29.4,23.1,30.00,WNW,298,21.0,33.0,77,0.00,,---,0.00,VWS V14.01,2013-02-09 14:55:00,
2013-02-09 09:59:00,28.0,23.2,29.98,WNW,300,11.0,16.0,82,0.00,,---,0.00,VWS V14.01,2013-02-09 14:59:00,
2013-02-09 10:00:00,29.0,22.7,30.00,NW,306,15.0,21.0,77,0.00,,---,0.00,VWS V14.01,2013-02-09 15:00:00,
2013-02-09 10:04:00,28.0,22.9,29.98,NW,311,11.0,17.0,81,0.00,,---,0.00,VWS V14.01,2013-02-09 15:04:00,
2013-02-09 10:05:00,28.9,22.6,30.00,NW,325,10.0,21.0,77,0.00,,---,0.00,VWS V14.01,2013-02-09 15:05:00,
2013-02-09 10:09:00,28.1,23.0,29.98,WNW,302,9.0,23.0,81,0.00,,---,0.00,VWS V14.01,2013-02-09 15:09:00,
2013-02-09 10:10:00,29.7,23.1,30.00,NW,311,8.0,17.0,76,0.00,,---,0.00,VWS V14.01,2013-02-09 15:10:00,
2013-02-09 10:14:00,28.2,23.1,29.98,NNW,331,6.0,21.0,81,0.00,,---,0.00,VWS V14.01,2013-02-09 15:14:00,
2013-02-09 10:15:00,29.7,23.1,30.01,NNW,332,21.0,28.0,76,0.00,,---,0.00,VWS V14.01,2013-02-09 15:15:00,
2013-02-09 10:18:00,28.3,23.5,29.99,WNW,296,7.0,31.0,82,0.00,,---,0.00,VWS V14.01,2013-02-09 15:18:00,
2013-02-09 10:20:00,29.3,22.7,30.01,NW,311,13.0,22.0,76,0.00,,---,0.00,VWS V14.01,2013-02-09 15:20:00,
2013-02-09 10:23:00,28.4,23.3,29.99,West,279,8.0,21.0,81,0.00,,---,0.00,VWS V14.01,2013-02-09 15:23:00,
2013-02-09 10:25:00,29.5,22.6,30.01,NW,316,10.0,24.0,75,0.00,,---,0.00,VWS V14.01,2013-02-09 15:25:00,
2013-02-09 10:28:00,28.5,23.1,29.99,West,280,7.0,26.0,80,0.00,,---,0.00,VWS V14.01,2013-02-09 15:28:00,
2013-02-09 10:30:00,29.8,22.9,30.01,NNE,20,15.0,25.0,75,0.01,,---,0.01,VWS V14.01,2013-02-09 15:30:00,
2013-02-09 10:33:00,28.7,23.3,29.99,WNW,294,11.0,22.0,80,0.00,,---,0.00,VWS V14.01,2013-02-09 15:33:00,
2013-02-09 10:35:00,29.6,22.3,30.01,NNW,340,14.0,26.0,74,0.01,,---,0.01,VWS V14.01,2013-02-09 15:35:00,
2013-02-09 10:38:00,29.0,23.6,29.99,NW,310,14.0,19.0,80,0.00,,---,0.00,VWS V14.01,2013-02-09 15:38:00,
2013-02-09 10:40:00,29.6,22.0,30.01,WNW,294,7.0,24.0,73,0.01,,---,0.01,VWS V14.01,2013-02-09 15:40:00,
2013-02-09 10:43:00,29.1,23.1,30.00,NW,323,12.0,25.0,78,0.00,,---,0.00,VWS V14.01,2013-02-09 15:43:00,
2013-02-09 10:45:00,30.4,22.5,30.01,NW,317,9.0,14.0,72,0.02,,---,0.02,VWS V14.01,2013-02-09 15:45:00,
2013-02-09 10:48:00,29.3,23.3,30.00,NW,306,17.0,21.0,78,0.00,,---,0.00,VWS V14.01,2013-02-09 15:48:00,
2013-02-09 10:50:00,30.4,22.1,30.01,WNW,291,10.0,19.0,71,0.02,,---,0.02,VWS V14.01,2013-02-09 15:50:00,
2013-02-09 10:53:00,29.4,23.1,30.00,WNW,298,11.0,21.0,77,0.00,,---,0.00,VWS V14.01,2013-02-09 15:53:00,
2013-02-09 10:55:00,30.2,21.3,30.02,NW,326,6.0,23.0,69,0.03,,---,0.03,VWS V14.01,2013-02-09 15:55:00,
2013-02-09 10:58:00,29.0,22.7,30.00,West,269,7.0,21.0,77,0.00,,---,0.00,VWS V14.01,2013-02-09 15:58:00,
2013-02-09 11:00:00,30.5,22.2,30.02,NW,319,21.0,21.0,71,0.03,,---,0.03,VWS V14.01,2013-02-09 16:00:00,
2013-02-09 11:03:00,28.8,22.2,30.00,NW,321,5.0,21.0,76,0.00,,---,0.00,VWS V14.01,2013-02-09 16:03:00,
2013-02-09 11:05:00,29.9,21.3,30.02,WNW,298,9.0,22.0,70,0.03,,---,0.03,VWS V14.01,2013-02-09 16:05:00,
2013-02-09 11:08:00,29.6,23.0,30.01,WNW,291,16.0,16.0,76,0.00,,---,0.00,VWS V14.01,2013-02-09 16:08:00,
2013-02-09 11:10:00,30.0,21.1,30.02,NW,321,10.0,23.0,69,0.04,,---,0.04,VWS V14.01,2013-02-09 16:10:00,
2013-02-09 11:13:00,29.8,23.2,30.01,NW,313,19.0,19.0,76,0.00,,---,0.00,VWS V14.01,2013-02-09 16:13:00,
2013-02-09 11:15:00,30.3,21.0,30.02,NNW,340,14.0,22.0,68,0.04,,---,0.04,VWS V14.01,2013-02-09 16:15:00,
2013-02-09 11:18:00,29.3,22.4,30.01,NNW,331,11.0,22.0,75,0.00,,---,0.00,VWS V14.01,2013-02-09 16:18:00,
2013-02-09 11:20:00,30.6,21.3,30.03,NW,315,6.0,18.0,68,0.05,,---,0.05,VWS V14.01,2013-02-09 16:20:00,
2013-02-09 11:23:00,29.4,22.5,30.01,NNW,346,13.0,24.0,75,0.00,,---,0.00,VWS V14.01,2013-02-09 16:23:00,
2013-02-09 11:25:00,30.8,21.9,30.02,WNW,298,10.0,20.0,69,0.05,,---,0.05,VWS V14.01,2013-02-09 16:25:00,
2013-02-09 11:28:00,29.7,22.8,30.01,NW,316,5.0,24.0,75,0.01,,---,0.01,VWS V14.01,2013-02-09 16:28:00,
2013-02-09 11:30:00,30.9,21.2,30.02,WNW,294,12.0,22.0,67,0.05,,---,0.05,VWS V14.01,2013-02-09 16:30:00,
2013-02-09 11:33:00,29.6,22.4,30.01,NW,309,12.0,26.0,74,0.01,,---,0.01,VWS V14.01,2013-02-09 16:33:00,
2013-02-09 11:35:00,30.8,21.5,30.03,NW,311,12.0,25.0,68,0.04,,---,0.05,VWS V14.01,2013-02-09 16:35:00,
2013-02-09 11:38:00,29.5,21.9,30.01,NW,325,6.0,24.0,73,0.01,,---,0.01,VWS V14.01,2013-02-09 16:38:00,
2013-02-09 11:40:00,31.0,21.3,30.02,WNW,298,16.0,23.0,67,0.05,,---,0.06,VWS V14.01,2013-02-09 16:40:00,
2013-02-09 11:43:00,30.2,22.9,30.01,NE,38,7.0,14.0,74,0.01,,---,0.01,VWS V14.01,2013-02-09 16:43:00,
2013-02-09 11:45:00,31.1,21.8,30.02,WNW,299,17.0,22.0,68,0.05,,---,0.06,VWS V14.01,2013-02-09 16:45:00,
2013-02-09 11:48:00,30.5,22.2,30.01,WNW,291,13.0,17.0,71,0.02,,---,0.02,VWS V14.01,2013-02-09 16:48:00,
2013-02-09 11:50:00,31.2,21.2,30.02,WNW,288,9.0,28.0,66,0.04,,---,0.06,VWS V14.01,2013-02-09 16:50:00,
2013-02-09 11:53:00,30.2,21.3,30.01,NNE,20,13.0,23.0,69,0.02,,---,0.02,VWS V14.01,2013-02-09 16:53:00,
2013-02-09 11:55:00,31.3,21.6,30.03,NW,319,17.0,27.0,67,0.04,,---,0.06,VWS V14.01,2013-02-09 16:55:00,
2013-02-09 11:58:00,30.5,22.2,30.02,NW,317,9.0,16.0,71,0.03,,---,0.03,VWS V14.01,2013-02-09 16:58:00,
2013-02-09 12:00:00,31.4,21.4,30.03,WNW,286,12.0,21.0,66,0.04,,---,0.07,VWS V14.01,2013-02-09 17:00:00,
2013-02-09 12:03:00,30.0,21.4,30.02,West,272,11.0,22.0,70,0.03,,---,0.03,VWS V14.01,2013-02-09 17:03:00,
2013-02-09 12:05:00,31.5,20.7,30.03,NNW,327,11.0,21.0,64,0.04,,---,0.07,VWS V14.01,2013-02-09 17:05:00,
2013-02-09 12:08:00,29.9,21.3,30.02,NW,318,23.0,23.0,70,0.04,,---,0.04,VWS V14.01,2013-02-09 17:08:00,
2013-02-09 12:10:00,31.4,20.6,30.04,NW,311,10.0,20.0,64,0.04,,---,0.07,VWS V14.01,2013-02-09 17:10:00,
2013-02-09 12:13:00,30.2,21.3,30.03,NW,309,12.0,22.0,69,0.04,,---,0.04,VWS V14.01,2013-02-09 17:13:00,
2013-02-09 12:15:00,31.6,21.2,30.03,NNW,337,4.0,27.0,65,0.04,,---,0.08,VWS V14.01,2013-02-09 17:15:00,
2013-02-09 12:18:00,30.6,21.3,30.03,NW,318,18.0,18.0,68,0.04,,---,0.04,VWS V14.01,2013-02-09 17:18:00,
2013-02-09 12:20:00,31.7,21.3,30.03,NW,320,5.0,28.0,65,0.04,,---,0.08,VWS V14.01,2013-02-09 17:20:00,
2013-02-09 12:23:00,30.8,21.9,30.03,NW,318,18.0,19.0,69,0.05,,---,0.05,VWS V14.01,2013-02-09 17:23:00,
2013-02-09 12:25:00,31.8,21.0,30.04,NW,319,7.0,23.0,64,0.03,,---,0.08,VWS V14.01,2013-02-09 17:25:00,
2013-02-09 12:28:00,31.0,21.7,30.03,NW,326,12.0,22.0,68,0.05,,---,0.05,VWS V14.01,2013-02-09 17:28:00,
2013-02-09 12:30:00,32.0,21.2,30.05,North,7,7.0,24.0,64,0.04,,---,0.09,VWS V14.01,2013-02-09 17:30:00,
2013-02-09 12:33:00,30.8,21.5,30.02,NW,321,9.0,25.0,68,0.04,,---,0.05,VWS V14.01,2013-02-09 17:33:00,
2013-02-09 12:35:00,32.0,21.2,30.04,NW,321,13.0,22.0,64,0.04,,---,0.09,VWS V14.01,2013-02-09 17:35:00,
2013-02-09 12:38:00,30.9,20.9,30.03,NNW,334,13.0,21.0,66,0.05,,---,0.06,VWS V14.01,2013-02-09 17:38:00,
2013-02-09 12:40:00,32.3,21.5,30.05,WNW,291,10.0,18.0,64,0.04,,---,0.09,VWS V14.01,2013-02-09 17:40:00,
2013-02-09 12:43:00,31.0,21.0,30.02,NW,319,13.0,22.0,66,0.05,,---,0.06,VWS V14.01,2013-02-09 17:43:00,
2013-02-09 12:45:00,32.4,21.2,30.05,WNW,298,9.0,22.0,63,0.03,,---,0.09,VWS V14.01,2013-02-09 17:45:00,
2013-02-09 12:48:00,31.2,21.5,30.02,NW,325,7.0,28.0,67,0.04,,---,0.06,VWS V14.01,2013-02-09 17:48:00,
2013-02-09 12:50:00,32.2,20.7,30.05,NW,317,11.0,24.0,62,0.03,,---,0.09,VWS V14.01,2013-02-09 17:50:00,
2013-02-09 12:53:00,31.3,21.6,30.03,NNW,346,19.0,24.0,67,0.04,,---,0.06,VWS V14.01,2013-02-09 17:53:00,
2013-02-09 12:55:00,32.1,20.2,30.05,NW,320,8.0,26.0,61,0.03,,---,0.09,VWS V14.01,2013-02-09 17:55:00,
2013-02-09 12:58:00,31.3,21.6,30.03,NW,311,9.0,21.0,67,0.03,,---,0.06,VWS V14.01,2013-02-09 17:58:00,
2013-02-09 13:00:00,32.3,20.4,30.05,North,354,16.0,22.0,61,0.03,,---,0.09,VWS V14.01,2013-02-09 18:00:00,
2013-02-09 13:03:00,31.5,21.1,30.03,NW,315,20.0,21.0,65,0.04,,---,0.07,VWS V14.01,2013-02-09 18:03:00,
2013-02-09 13:05:00,32.5,20.9,30.05,WNW,290,7.0,17.0,62,0.02,,---,0.09,VWS V14.01,2013-02-09 18:05:00,
2013-02-09 13:08:00,31.4,20.6,30.03,NNW,332,13.0,20.0,64,0.04,,---,0.07,VWS V14.01,2013-02-09 18:08:00,
2013-02-09 13:10:00,32.7,20.4,30.05,NW,304,6.0,19.0,60,0.02,,---,0.09,VWS V14.01,2013-02-09 18:10:00,
2013-02-09 13:13:00,31.4,21.0,30.03,NW,319,6.0,27.0,65,0.03,,---,0.07,VWS V14.01,2013-02-09 18:13:00,
2013-02-09 13:15:00,32.7,20.4,30.06,NW,321,13.0,19.0,60,0.02,,---,0.09,VWS V14.01,2013-02-09 18:15:00,
2013-02-09 13:18:00,31.7,21.3,30.03,NW,315,8.0,28.0,65,0.04,,---,0.08,VWS V14.01,2013-02-09 18:18:00,
2013-02-09 13:20:00,32.6,19.9,30.05,WNW,302,13.0,24.0,59,0.01,,---,0.09,VWS V14.01,2013-02-09 18:20:00,
2013-02-09 13:23:00,31.8,21.0,30.04,NW,319,8.0,23.0,64,0.03,,---,0.08,VWS V14.01,2013-02-09 18:23:00,
2013-02-09 13:25:00,32.5,19.4,30.05,NW,322,5.0,26.0,58,0.01,,---,0.09,VWS V14.01,2013-02-09 18:25:00,
2013-02-09 13:28:00,32.0,21.2,30.04,North,7,7.0,24.0,64,0.03,,---,0.08,VWS V14.01,2013-02-09 18:28:00,
2013-02-09 13:30:00,32.6,19.1,30.05,NW,323,16.0,23.0,57,0.01,,---,0.09,VWS V14.01,2013-02-09 18:30:00,
2013-02-09 13:33:00,31.9,20.8,30.04,WNW,300,22.0,22.0,63,0.04,,---,0.09,VWS V14.01,2013-02-09 18:33:00,
2013-02-09 13:35:00,32.5,19.0,30.06,West,276,7.0,29.0,57,0.00,,---,0.09,VWS V14.01,2013-02-09 18:35:00,
2013-02-09 13:38:00,32.1,21.3,30.05,NW,304,8.0,15.0,64,0.04,,---,0.09,VWS V14.01,2013-02-09 18:38:00,
2013-02-09 13:40:00,32.8,18.4,30.05,NW,312,10.0,24.0,55,0.00,,---,0.09,VWS V14.01,2013-02-09 18:40:00,
2013-02-09 13:43:00,32.3,21.1,30.05,NW,311,4.0,22.0,63,0.03,,---,0.09,VWS V14.01,2013-02-09 18:43:00,
2013-02-09 13:45:00,32.7,18.3,30.06,NW,304,12.0,20.0,55,0.00,,---,0.09,VWS V14.01,2013-02-09 18:45:00,
2013-02-09 13:48:00,32.2,20.3,30.05,WNW,294,8.0,24.0,61,0.03,,---,0.09,VWS V14.01,2013-02-09 18:48:00,
2013-02-09 13:50:00,32.9,18.9,30.05,WNW,298,15.0,19.0,56,0.00,,---,0.09,VWS V14.01,2013-02-09 18:50:00,
2013-02-09 13:53:00,32.2,20.7,30.05,NW,318,11.0,26.0,62,0.03,,---,0.09,VWS V14.01,2013-02-09 18:53:00,
2013-02-09 13:55:00,32.9,18.9,30.06,NW,324,8.0,27.0,56,0.00,,---,0.09,VWS V14.01,2013-02-09 18:55:00,
2013-02-09 13:58:00,32.3,20.4,30.05,NW,309,17.0,17.0,61,0.03,,---,0.09,VWS V14.01,2013-02-09 18:58:00,
2013-02-09 14:00:00,32.9,18.9,30.06,WNW,290,11.0,23.0,56,0.00,,---,0.09,VWS V14.01,2013-02-09 19:00:00,
2013-02-09 14:03:00,32.4,20.5,30.05,NW,321,10.0,17.0,61,0.02,,---,0.09,VWS V14.01,2013-02-09 19:03:00,
2013-02-09 14:05:00,32.9,19.4,30.06,NW,311,16.0,22.0,57,0.00,,---,0.09,VWS V14.01,2013-02-09 19:05:00,
2013-02-09 14:08:00,32.6,20.3,30.05,NNW,347,3.0,18.0,60,0.02,,---,0.09,VWS V14.01,2013-02-09 19:08:00,
2013-02-09 14:10:00,33.0,19.0,30.06,NW,313,20.0,25.0,56,0.00,,---,0.09,VWS V14.01,2013-02-09 19:10:00,
2013-02-09 14:13:00,32.7,20.0,30.05,NNW,345,8.0,19.0,59,0.02,,---,0.09,VWS V14.01,2013-02-09 19:13:00,
2013-02-09 14:15:00,33.2,18.8,30.06,NNW,329,10.0,23.0,55,0.00,,---,0.09,VWS V14.01,2013-02-09 19:15:00,
2013-02-09 14:18:00,32.7,20.0,30.06,NNW,337,18.0,24.0,59,0.01,,---,0.09,VWS V14.01,2013-02-09 19:18:00,
2013-02-09 14:20:00,33.2,18.8,30.06,WNW,301,20.0,23.0,55,0.00,,---,0.09,VWS V14.01,2013-02-09 19:20:00,
2013-02-09 14:23:00,32.5,19.8,30.05,NW,325,26.0,26.0,59,0.01,,---,0.09,VWS V14.01,2013-02-09 19:23:00,
2013-02-09 14:25:00,33.3,18.0,30.07,NNW,328,7.0,21.0,53,0.00,,---,0.09,VWS V14.01,2013-02-09 19:25:00,
2013-02-09 14:28:00,32.6,19.1,30.05,WNW,297,11.0,23.0,57,0.01,,---,0.09,VWS V14.01,2013-02-09 19:28:00,
2013-02-09 14:30:00,33.4,18.6,30.07,NNW,329,16.0,20.0,54,0.00,,---,0.09,VWS V14.01,2013-02-09 19:30:00,
2013-02-09 14:33:00,32.6,19.1,30.05,North,5,11.0,29.0,57,0.00,,---,0.09,VWS V14.01,2013-02-09 19:33:00,
2013-02-09 14:35:00,33.4,19.0,30.07,NNW,338,4.0,19.0,55,0.00,,---,0.09,VWS V14.01,2013-02-09 19:35:00,
2013-02-09 14:38:00,32.8,19.3,30.05,NNW,338,18.0,19.0,57,0.00,,---,0.09,VWS V14.01,2013-02-09 19:38:00,
2013-02-09 14:40:00,33.6,18.7,30.08,NW,306,8.0,15.0,54,0.01,,---,0.10,VWS V14.01,2013-02-09 19:40:00,
2013-02-09 14:43:00,32.7,18.8,30.05,NNW,327,18.0,20.0,56,0.00,,---,0.09,VWS V14.01,2013-02-09 19:43:00,
2013-02-09 14:45:00,33.5,18.2,30.08,NW,326,13.0,17.0,53,0.01,,---,0.10,VWS V14.01,2013-02-09 19:45:00,
2013-02-09 14:48:00,32.8,18.8,30.05,NW,313,5.0,19.0,56,0.00,,---,0.09,VWS V14.01,2013-02-09 19:48:00,
2013-02-09 14:50:00,33.3,18.0,30.08,WNW,295,15.0,20.0,53,0.01,,---,0.10,VWS V14.01,2013-02-09 19:50:00,
2013-02-09 14:53:00,33.0,19.0,30.05,NW,318,13.0,27.0,56,0.00,,---,0.09,VWS V14.01,2013-02-09 19:53:00,
2013-02-09 14:55:00,33.0,17.8,30.08,NNW,329,10.0,23.0,53,0.01,,---,0.10,VWS V14.01,2013-02-09 19:55:00,
2013-02-09 14:58:00,32.9,18.9,30.06,NNW,330,15.0,20.0,56,0.00,,---,0.09,VWS V14.01,2013-02-09 19:58:00,
2013-02-09 15:00:00,32.8,17.6,30.08,NW,317,10.0,24.0,53,0.01,,---,0.10,VWS V14.01,2013-02-09 20:00:00,
2013-02-09 15:03:00,32.9,18.9,30.06,NW,305,5.0,21.0,56,0.00,,---,0.09,VWS V14.01,2013-02-09 20:03:00,
2013-02-09 15:05:00,32.8,17.6,30.09,NW,305,15.0,23.0,53,0.01,,---,0.10,VWS V14.01,2013-02-09 20:05:00,
2013-02-09 15:08:00,33.0,18.6,30.06,WNW,302,18.0,25.0,55,0.00,,---,0.09,VWS V14.01,2013-02-09 20:08:00,
2013-02-09 15:10:00,32.8,17.6,30.09,NNW,329,12.0,19.0,53,0.01,,---,0.10,VWS V14.01,2013-02-09 20:10:00,
2013-02-09 15:13:00,33.1,18.7,30.06,NW,312,21.0,23.0,55,0.00,,---,0.09,VWS V14.01,2013-02-09 20:13:00,
2013-02-09 15:15:00,32.7,17.5,30.09,NW,319,8.0,17.0,53,0.01,,---,0.10,VWS V14.01,2013-02-09 20:15:00,
2013-02-09 15:18:00,33.3,18.9,30.07,NW,323,23.0,23.0,55,0.00,,---,0.09,VWS V14.01,2013-02-09 20:18:00,
2013-02-09 15:20:00,32.7,17.5,30.10,WNW,291,9.0,20.0,53,0.01,,---,0.10,VWS V14.01,2013-02-09 20:20:00,
2013-02-09 15:23:00,33.3,18.5,30.07,NW,319,14.0,21.0,54,0.00,,---,0.09,VWS V14.01,2013-02-09 20:23:00,
2013-02-09 15:25:00,32.6,16.9,30.10,NNW,330,13.0,27.0,52,0.01,,---,0.10,VWS V14.01,2013-02-09 20:25:00,
2013-02-09 15:28:00,33.4,18.6,30.07,WNW,287,11.0,18.0,54,0.00,,---,0.09,VWS V14.01,2013-02-09 20:28:00,
2013-02-09 15:30:00,32.6,16.5,30.11,WNW,290,8.0,19.0,51,0.01,,---,0.10,VWS V14.01,2013-02-09 20:30:00,
2013-02-09 15:33:00,33.4,18.6,30.07,West,279,10.0,19.0,54,0.00,,---,0.09,VWS V14.01,2013-02-09 20:33:00,
2013-02-09 15:35:00,32.4,17.2,30.11,NNE,12,2.0,15.0,53,0.01,,---,0.10,VWS V14.01,2013-02-09 20:35:00,
2013-02-09 15:38:00,33.6,19.2,30.07,NNW,333,4.0,14.0,55,0.00,,---,0.09,VWS V14.01,2013-02-09 20:38:00,
2013-02-09 15:40:00,32.2,17.0,30.11,WNW,290,12.0,14.0,53,0.01,,---,0.10,VWS V14.01,2013-02-09 20:40:00,
2013-02-09 15:43:00,33.5,18.2,30.08,NW,319,7.0,14.0,53,0.01,,---,0.10,VWS V14.01,2013-02-09 20:43:00,
2013-02-09 15:45:00,32.1,16.5,30.11,WNW,301,8.0,12.0,52,0.00,,---,0.10,VWS V14.01,2013-02-09 20:45:00,
2013-02-09 15:48:00,33.3,18.5,30.08,NW,323,11.0,14.0,54,0.01,,---,0.10,VWS V14.01,2013-02-09 20:48:00,
2013-02-09 15:50:00,32.1,16.5,30.12,WNW,301,8.0,8.0,52,0.00,,---,0.10,VWS V14.01,2013-02-09 20:50:00,
2013-02-09 15:53:00,33.1,18.3,30.08,NW,308,18.0,23.0,54,0.01,,---,0.10,VWS V14.01,2013-02-09 20:53:00,
2013-02-09 15:55:00,32.0,16.4,30.12,WNW,301,8.0,8.0,52,0.00,,---,0.10,VWS V14.01,2013-02-09 20:55:00,
2013-02-09 15:58:00,32.9,17.7,30.08,WNW,286,9.0,24.0,53,0.01,,---,0.10,VWS V14.01,2013-02-09 20:58:00,
2013-02-09 16:00:00,31.7,16.1,30.13,WNW,301,8.0,8.0,52,0.00,,---,0.10,VWS V14.01,2013-02-09 21:00:00,
2013-02-09 16:03:00,32.8,18.0,30.09,NNW,327,6.0,23.0,54,0.01,,---,0.10,VWS V14.01,2013-02-09 21:03:00,
2013-02-09 16:05:00,31.6,16.5,30.13,WNW,301,8.0,8.0,53,0.00,,---,0.10,VWS V14.01,2013-02-09 21:05:00,
2013-02-09 16:08:00,32.8,17.6,30.09,NW,326,10.0,19.0,53,0.01,,---,0.10,VWS V14.01,2013-02-09 21:08:00,
2013-02-09 16:10:00,31.4,16.7,30.13,WNW,301,8.0,8.0,54,0.00,,---,0.10,VWS V14.01,2013-02-09 21:10:00,
2013-02-09 16:13:00,32.7,17.9,30.09,WNW,300,10.0,17.0,54,0.01,,---,0.10,VWS V14.01,2013-02-09 21:13:00,
2013-02-09 16:15:00,31.3,16.6,30.14,WNW,301,8.0,8.0,54,0.00,,---,0.10,VWS V14.01,2013-02-09 21:15:00,
2013-02-09 16:18:00,32.7,17.9,30.10,NW,311,12.0,20.0,54,0.01,,---,0.10,VWS V14.01,2013-02-09 21:18:00,
2013-02-09 16:20:00,31.2,16.1,30.14,WNW,301,8.0,8.0,53,0.00,,---,0.10,VWS V14.01,2013-02-09 21:20:00,
2013-02-09 16:23:00,32.6,16.9,30.10,West,269,7.0,27.0,52,0.01,,---,0.10,VWS V14.01,2013-02-09 21:23:00,
2013-02-09 16:25:00,30.9,16.2,30.14,WNW,301,8.0,8.0,54,0.00,,---,0.10,VWS V14.01,2013-02-09 21:25:00,
2013-02-09 16:28:00,32.6,16.9,30.11,West,280,17.0,19.0,52,0.01,,---,0.10,VWS V14.01,2013-02-09 21:28:00,
2013-02-09 16:30:00,30.7,16.5,30.14,NW,307,8.0,11.0,55,0.00,,---,0.10,VWS V14.01,2013-02-09 21:30:00,
2013-02-09 16:33:00,32.5,17.3,30.11,NW,322,11.0,12.0,53,0.01,,---,0.10,VWS V14.01,2013-02-09 21:33:00,
2013-02-09 16:35:00,30.4,16.6,30.15,NW,306,6.0,14.0,56,0.00,,---,0.10,VWS V14.01,2013-02-09 21:35:00,
2013-02-09 16:38:00,32.3,17.1,30.11,NW,316,5.0,14.0,53,0.01,,---,0.10,VWS V14.01,2013-02-09 21:38:00,
2013-02-09 16:40:00,30.3,16.1,30.15,WNW,297,8.0,15.0,55,0.00,,---,0.10,VWS V14.01,2013-02-09 21:40:00,
2013-02-09 16:43:00,32.2,16.6,30.12,WNW,301,8.0,12.0,52,0.00,,---,0.10,VWS V14.01,2013-02-09 21:43:00,
2013-02-09 16:45:00,30.2,16.4,30.16,NW,313,11.0,20.0,56,0.00,,---,0.10,VWS V14.01,2013-02-09 21:45:00,
2013-02-09 16:48:00,32.1,16.5,30.12,WNW,301,8.0,8.0,52,0.00,,---,0.10,VWS V14.01,2013-02-09 21:48:00,
2013-02-09 16:50:00,30.1,16.3,30.16,WNW,293,10.0,15.0,56,0.00,,---,0.10,VWS V14.01,2013-02-09 21:50:00,
2013-02-09 16:53:00,32.0,16.8,30.12,WNW,301,8.0,8.0,53,0.00,,---,0.10,VWS V14.01,2013-02-09 21:53:00,
2013-02-09 16:55:00,30.0,15.8,30.16,NW,304,11.0,23.0,55,0.00,,---,0.10,VWS V14.01,2013-02-09 21:55:00,
2013-02-09 16:58:00,31.9,16.3,30.13,WNW,301,8.0,8.0,52,0.00,,---,0.10,VWS V14.01,2013-02-09 21:58:00,
2013-02-09 17:00:00,29.7,15.9,30.16,WNW,297,7.0,13.0,56,0.00,,---,0.10,VWS V14.01,2013-02-09 22:00:00,
2013-02-09 17:02:00,31.7,16.1,30.13,WNW,301,8.0,8.0,52,0.00,,---,0.10,VWS V14.01,2013-02-09 22:02:00,
2013-02-09 17:05:00,29.5,16.2,30.17,NW,317,5.0,10.0,57,0.00,,---,0.10,VWS V14.01,2013-02-09 22:05:00,
2013-02-09 17:07:00,31.5,16.4,30.13,WNW,301,8.0,8.0,53,0.00,,---,0.10,VWS V14.01,2013-02-09 22:07:00,
2013-02-09 17:10:00,29.3,16.0,30.17,NW,304,10.0,17.0,57,0.00,,---,0.10,VWS V14.01,2013-02-09 22:10:00,
2013-02-09 17:12:00,31.3,16.6,30.13,WNW,301,8.0,8.0,54,0.00,,---,0.10,VWS V14.01,2013-02-09 22:12:00,
2013-02-09 17:15:00,29.2,15.5,30.17,NW,320,5.0,14.0,56,0.00,,---,0.10,VWS V14.01,2013-02-09 22:15:00,
2013-02-09 17:17:00,31.2,16.5,30.14,WNW,301,8.0,8.0,54,0.00,,---,0.10,VWS V14.01,2013-02-09 22:17:00,
2013-02-09 17:20:00,29.3,14.7,30.17,NNW,339,11.0,13.0,54,0.00,,---,0.10,VWS V14.01,2013-02-09 22:20:00,
2013-02-09 17:22:00,31.0,16.3,30.14,WNW,301,8.0,8.0,54,0.00,,---,0.10,VWS V14.01,2013-02-09 22:22:00,
2013-02-09 17:25:00,29.3,14.7,30.18,NW,315,6.0,15.0,54,0.00,,---,0.10,VWS V14.01,2013-02-09 22:25:00,
2013-02-09 17:27:00,30.8,16.1,30.14,NW,306,10.0,11.0,54,0.00,,---,0.10,VWS V14.01,2013-02-09 22:27:00,
2013-02-09 17:30:00,29.0,14.9,30.18,WNW,294,6.0,11.0,55,0.00,,---,0.10,VWS V14.01,2013-02-09 22:30:00,
2013-02-09 17:32:00,30.5,16.3,30.14,NW,306,6.0,14.0,55,0.00,,---,0.10,VWS V14.01,2013-02-09 22:32:00,
2013-02-09 17:35:00,28.7,15.0,30.19,NNW,338,8.0,17.0,56,0.00,,---,0.10,VWS V14.01,2013-02-09 22:35:00,
2013-02-09 17:37:00,30.2,16.4,30.15,WNW,293,6.0,14.0,56,0.00,,---,0.10,VWS V14.01,2013-02-09 22:37:00,
2013-02-09 17:40:00,28.7,15.0,30.19,NW,304,6.0,12.0,56,0.00,,---,0.10,VWS V14.01,2013-02-09 22:40:00,
2013-02-09 17:42:00,30.3,16.1,30.15,NW,318,6.0,13.0,55,0.00,,---,0.10,VWS V14.01,2013-02-09 22:42:00,
2013-02-09 17:45:00,28.5,14.8,30.20,NW,312,6.0,10.0,56,0.00,,---,0.10,VWS V14.01,2013-02-09 22:45:00,
2013-02-09 17:47:00,30.2,16.4,30.15,NW,304,7.0,15.0,56,0.00,,---,0.10,VWS V14.01,2013-02-09 22:47:00,
2013-02-09 17:50:00,28.4,14.7,30.19,NW,306,5.0,14.0,56,0.00,,---,0.10,VWS V14.01,2013-02-09 22:50:00,
2013-02-09 17:52:00,30.0,15.8,30.16,WNW,290,7.0,23.0,55,0.00,,---,0.10,VWS V14.01,2013-02-09 22:52:00,
2013-02-09 17:55:00,28.3,14.6,30.20,NW,314,3.0,12.0,56,0.00,,---,0.10,VWS V14.01,2013-02-09 22:55:00,
2013-02-09 17:57:00,29.8,15.6,30.16,NW,313,4.0,13.0,55,0.00,,---,0.10,VWS V14.01,2013-02-09 22:57:00,
2013-02-09 18:00:00,28.1,14.8,30.20,NW,308,6.0,11.0,57,0.00,,---,0.10,VWS V14.01,2013-02-09 23:00:00,
2013-02-09 18:02:00,29.6,16.2,30.17,West,277,6.0,10.0,57,0.00,,---,0.10,VWS V14.01,2013-02-09 23:02:00,
2013-02-09 18:05:00,27.9,14.6,30.20,WNW,292,3.0,11.0,57,0.00,,---,0.10,VWS V14.01,2013-02-09 23:05:00,
2013-02-09 18:07:00,29.4,16.1,30.17,NW,307,8.0,17.0,57,0.00,,---,0.10,VWS V14.01,2013-02-09 23:07:00,
2013-02-09 18:10:00,27.7,14.5,30.20,WNW,296,5.0,10.0,57,0.00,,---,0.10,VWS V14.01,2013-02-09 23:10:00,
2013-02-09 18:12:00,29.3,16.0,30.17,NW,311,12.0,12.0,57,0.00,,---,0.10,VWS V14.01,2013-02-09 23:12:00,
2013-02-09 18:15:00,27.5,14.7,30.20,NW,324,3.0,8.0,58,0.00,,---,0.10,VWS V14.01,2013-02-09 23:15:00,
2013-02-09 18:17:00,29.3,15.1,30.17,NNW,331,11.0,13.0,55,0.00,,---,0.10,VWS V14.01,2013-02-09 23:17:00,
2013-02-09 18:20:00,27.2,14.4,30.21,NNW,333,8.0,13.0,58,0.00,,---,0.10,VWS V14.01,2013-02-09 23:20:00,
2013-02-09 18:22:00,29.3,14.7,30.18,NW,323,6.0,15.0,54,0.00,,---,0.10,VWS V14.01,2013-02-09 23:22:00,
2013-02-09 18:25:00,27.3,14.5,30.21,NW,322,9.0,14.0,58,0.00,,---,0.10,VWS V14.01,2013-02-09 23:25:00,
2013-02-09 18:27:00,29.1,14.5,30.18,WNW,284,6.0,11.0,54,0.00,,---,0.10,VWS V14.01,2013-02-09 23:27:00,
2013-02-09 18:30:00,27.3,14.5,30.21,NW,310,7.0,14.0,58,0.00,,---,0.10,VWS V14.01,2013-02-09 23:30:00,
2013-02-09 18:32:00,28.8,15.1,30.18,WNW,300,12.0,12.0,56,0.00,,---,0.10,VWS V14.01,2013-02-09 23:32:00,
2013-02-09 18:35:00,27.2,14.0,30.21,NW,306,3.0,13.0,57,0.00,,---,0.10,VWS V14.01,2013-02-09 23:35:00,
2013-02-09 18:37:00,28.7,15.0,30.19,WNW,296,5.0,9.0,56,0.00,,---,0.10,VWS V14.01,2013-02-09 23:37:00,
2013-02-09 18:40:00,27.0,13.8,30.22,NW,313,3.0,13.0,57,0.00,,---,0.10,VWS V14.01,2013-02-09 23:40:00,
2013-02-09 18:42:00,28.6,14.9,30.19,NW,315,8.0,9.0,56,0.00,,---,0.10,VWS V14.01,2013-02-09 23:42:00,
2013-02-09 18:45:00,26.9,14.1,30.23,NW,309,5.0,8.0,58,0.00,,---,0.10,VWS V14.01,2013-02-09 23:45:00,
2013-02-09 18:47:00,28.5,14.8,30.20,West,271,8.0,14.0,56,0.00,,---,0.10,VWS V14.01,2013-02-09 23:47:00,
2013-02-09 18:50:00,26.7,13.9,30.23,NW,309,2.0,12.0,58,0.00,,---,0.10,VWS V14.01,2013-02-09 23:50:00,
2013-02-09 18:52:00,28.3,14.6,30.20,WNW,303,2.0,7.0,56,0.00,,---,0.10,VWS V14.01,2013-02-09 23:52:00,
2013-02-09 18:55:00,26.6,13.8,30.23,NW,316,3.0,12.0,58,0.00,,---,0.10,VWS V14.01,2013-02-09 23:55:00,
2013-02-09 18:57:00,28.2,14.5,30.20,WNW,300,5.0,11.0,56,0.00,,---,0.10,VWS V14.01,2013-02-09 23:57:00,
2013-02-09 19:00:00,26.5,13.7,30.24,NNW,340,3.0,13.0,58,0.00,,---,0.10,VWS V14.01,2013-02-10 00:00:00,
2013-02-09 19:02:00,28.0,14.8,30.20,NW,317,5.0,9.0,57,0.00,,---,0.10,VWS V14.01,2013-02-10 00:02:00,
2013-02-09 19:05:00,26.5,13.7,30.23,NW,306,5.0,13.0,58,0.00,,---,0.10,VWS V14.01,2013-02-10 00:05:00,
2013-02-09 19:07:00,27.9,14.6,30.20,NW,310,4.0,10.0,57,0.00,,---,0.10,VWS V14.01,2013-02-10 00:07:00,
2013-02-09 19:10:00,26.3,13.6,30.24,NW,310,5.0,10.0,58,0.00,,---,0.10,VWS V14.01,2013-02-10 00:10:00,
2013-02-09 19:12:00,27.6,14.4,30.20,NW,321,3.0,8.0,57,0.00,,---,0.10,VWS V14.01,2013-02-10 00:12:00,
2013-02-09 19:15:00,26.1,13.4,30.24,NW,318,8.0,12.0,58,0.00,,---,0.10,VWS V14.01,2013-02-10 00:15:00,
2013-02-09 19:17:00,27.3,14.5,30.21,NW,321,2.0,6.0,58,0.00,,---,0.10,VWS V14.01,2013-02-10 00:17:00,
2013-02-09 19:20:00,26.0,13.3,30.24,WNW,303,5.0,12.0,58,0.00,,---,0.10,VWS V14.01,2013-02-10 00:20:00,
2013-02-09 19:22:00,27.3,14.5,30.20,WNW,302,10.0,14.0,58,0.00,,---,0.10,VWS V14.01,2013-02-10 00:22:00,
2013-02-09 19:25:00,25.9,13.2,30.25,NW,316,1.0,9.0,58,0.00,,---,0.10,VWS V14.01,2013-02-10 00:25:00,
2013-02-09 19:27:00,27.3,14.5,30.21,NW,309,3.0,11.0,58,0.00,,---,0.10,VWS V14.01,2013-02-10 00:27:00,
2013-02-09 19:30:00,25.8,13.1,30.25,NNW,334,7.0,17.0,58,0.00,,---,0.10,VWS V14.01,2013-02-10 00:30:00,
2013-02-09 19:32:00,27.2,14.0,30.21,NW,311,8.0,13.0,57,0.00,,---,0.10,VWS V14.01,2013-02-10 00:32:00,
2013-02-09 19:35:00,25.8,13.1,30.26,NNW,327,6.0,10.0,58,0.00,,---,0.10,VWS V14.01,2013-02-10 00:35:00,
2013-02-09 19:37:00,27.1,14.3,30.22,WNW,296,6.0,9.0,58,0.00,,---,0.10,VWS V14.01,2013-02-10 00:37:00,
2013-02-09 19:40:00,25.7,13.0,30.26,NNW,328,10.0,11.0,58,0.00,,---,0.10,VWS V14.01,2013-02-10 00:40:00,
2013-02-09 19:42:00,26.9,14.1,30.22,NW,325,4.0,8.0,58,0.00,,---,0.10,VWS V14.01,2013-02-10 00:42:00,
2013-02-09 19:45:00,25.6,12.9,30.27,WNW,303,8.0,14.0,58,0.00,,---,0.10,VWS V14.01,2013-02-10 00:45:00,
2013-02-09 19:47:00,26.7,13.9,30.23,NW,321,7.0,12.0,58,0.00,,---,0.10,VWS V14.01,2013-02-10 00:47:00,
2013-02-09 19:50:00,25.4,12.7,30.27,NW,306,10.0,11.0,58,0.00,,---,0.10,VWS V14.01,2013-02-10 00:50:00,
2013-02-09 19:52:00,26.6,13.8,30.23,NW,312,6.0,8.0,58,0.00,,---,0.10,VWS V14.01,2013-02-10 00:52:00,
2013-02-09 19:55:00,25.3,12.6,30.27,WNW,290,4.0,10.0,58,0.00,,---,0.10,VWS V14.01,2013-02-10 00:55:00,
2013-02-09 19:57:00,26.6,13.8,30.23,NW,326,5.0,12.0,58,0.00,,---,0.10,VWS V14.01,2013-02-10 00:57:00,
2013-02-09 20:00:00,25.2,12.5,30.28,West,279,12.0,16.0,58,0.00,,---,0.10,VWS V14.01,2013-02-10 01:00:00,
2013-02-09 20:02:00,26.5,13.7,30.24,WNW,302,11.0,12.0,58,0.00,,---,0.10,VWS V14.01,2013-02-10 01:02:00,
2013-02-09 20:05:00,25.2,12.1,30.28,NW,315,2.0,12.0,57,0.00,,---,0.10,VWS V14.01,2013-02-10 01:05:00,
2013-02-09 20:07:00,26.3,13.6,30.24,NNW,329,6.0,10.0,58,0.00,,---,0.10,VWS V14.01,2013-02-10 01:07:00,
2013-02-09 20:10:00,25.1,12.4,30.28,NW,317,10.0,11.0,58,0.00,,---,0.10,VWS V14.01,2013-02-10 01:10:00,
2013-02-09 20:12:00,26.2,13.4,30.24,NW,319,6.0,7.0,58,0.00,,---,0.10,VWS V14.01,2013-02-10 01:12:00,
2013-02-09 20:15:00,25.0,11.9,30.29,NW,307,4.0,17.0,57,0.00,,---,0.10,VWS V14.01,2013-02-10 01:15:00,
2013-02-09 20:17:00,26.0,13.3,30.24,WNW,288,9.0,10.0,58,0.00,,---,0.10,VWS V14.01,2013-02-10 01:17:00,
2013-02-09 20:20:00,25.0,11.9,30.28,NW,324,7.0,14.0,57,0.00,,---,0.10,VWS V14.01,2013-02-10 01:20:00,
2013-02-09 20:22:00,26.0,13.3,30.24,WNW,300,5.0,9.0,58,0.00,,---,0.10,VWS V14.01,2013-02-10 01:22:00,
2013-02-09 20:25:00,24.8,11.7,30.29,NNW,329,6.0,12.0,57,0.00,,---,0.10,VWS V14.01,2013-02-10 01:25:00,
2013-02-09 20:27:00,25.8,13.1,30.25,NW,309,6.0,17.0,58,0.00,,---,0.10,VWS V14.01,2013-02-10 01:27:00,
2013-02-09 20:30:00,24.8,11.7,30.29,WNW,303,3.0,13.0,57,0.00,,---,0.10,VWS V14.01,2013-02-10 01:30:00,
2013-02-09 20:32:00,25.9,12.8,30.26,NNW,341,2.0,7.0,57,0.00,,---,0.10,VWS V14.01,2013-02-10 01:32:00,
2013-02-09 20:35:00,24.6,11.9,30.30,North,359,4.0,11.0,58,0.00,,---,0.10,VWS V14.01,2013-02-10 01:35:00,
2013-02-09 20:37:00,25.7,13.0,30.26,NW,319,6.0,11.0,58,0.00,,---,0.10,VWS V14.01,2013-02-10 01:37:00,
2013-02-09 20:40:00,24.4,11.8,30.30,NW,326,9.0,12.0,58,0.00,,---,0.10,VWS V14.01,2013-02-10 01:40:00,
2013-02-09 20:42:00,25.6,12.9,30.27,NW,305,5.0,10.0,58,0.00,,---,0.10,VWS V14.01,2013-02-10 01:42:00,
2013-02-09 20:45:00,24.3,11.7,30.30,NW,307,4.0,10.0,58,0.00,,---,0.10,VWS V14.01,2013-02-10 01:45:00,
2013-02-09 20:47:00,25.5,12.8,30.27,NW,311,5.0,11.0,58,0.00,,---,0.10,VWS V14.01,2013-02-10 01:47:00,
2013-02-09 20:50:00,24.1,11.9,30.30,WNW,303,8.0,11.0,59,0.00,,---,0.10,VWS V14.01,2013-02-10 01:50:00,
2013-02-09 20:52:00,25.4,12.7,30.27,NW,306,2.0,10.0,58,0.00,,---,0.10,VWS V14.01,2013-02-10 01:52:00,
2013-02-09 20:55:00,24.1,11.5,30.30,NW,307,4.0,9.0,58,0.00,,---,0.10,VWS V14.01,2013-02-10 01:55:00,
2013-02-09 20:57:00,25.2,12.5,30.27,NW,326,4.0,16.0,58,0.00,,---,0.10,VWS V14.01,2013-02-10 01:57:00,
2013-02-09 21:00:00,23.9,11.3,30.30,NNW,327,7.0,9.0,58,0.00,,---,0.10,VWS V14.01,2013-02-10 02:00:00,
2013-02-09 21:02:00,25.2,12.5,30.28,NW,315,6.0,12.0,58,0.00,,---,0.10,VWS V14.01,2013-02-10 02:02:00,
2013-02-09 21:05:00,23.9,11.3,30.30,NW,321,6.0,11.0,58,0.00,,---,0.10,VWS V14.01,2013-02-10 02:05:00,
2013-02-09 21:07:00,25.1,12.4,30.28,WNW,298,5.0,10.0,58,0.00,,---,0.10,VWS V14.01,2013-02-10 02:07:00,
2013-02-09 21:10:00,23.7,11.1,30.30,NW,308,4.0,11.0,58,0.00,,---,0.10,VWS V14.01,2013-02-10 02:10:00,
2013-02-09 21:12:00,25.0,11.9,30.28,NW,307,6.0,11.0,57,0.00,,---,0.10,VWS V14.01,2013-02-10 02:12:00,
2013-02-09 21:15:00,23.6,11.0,30.30,NNW,334,4.0,12.0,58,0.00,,---,0.10,VWS V14.01,2013-02-10 02:15:00,
2013-02-09 21:17:00,25.0,11.9,30.28,West,274,5.0,14.0,57,0.00,,---,0.10,VWS V14.01,2013-02-10 02:17:00,
2013-02-09 21:20:00,23.5,10.9,30.30,WNW,288,8.0,19.0,58,0.00,,---,0.10,VWS V14.01,2013-02-10 02:20:00,
2013-02-09 21:22:00,24.9,11.8,30.29,NNW,330,8.0,9.0,57,0.00,,---,0.10,VWS V14.01,2013-02-10 02:22:00,
2013-02-09 21:25:00,23.5,10.9,30.31,WNW,282,2.0,9.0,58,0.00,,---,0.10,VWS V14.01,2013-02-10 02:25:00,
2013-02-09 21:27:00,24.8,11.7,30.29,West,273,10.0,13.0,57,0.00,,---,0.10,VWS V14.01,2013-02-10 02:27:00,
2013-02-09 21:30:00,23.4,10.8,30.31,NW,313,0.0,8.0,58,0.00,,---,0.10,VWS V14.01,2013-02-10 02:30:00,
2013-02-09 21:32:00,24.6,11.6,30.29,NW,321,5.0,11.0,57,0.00,,---,0.10,VWS V14.01,2013-02-10 02:32:00,
2013-02-09 21:35:00,23.1,10.5,30.31,NW,310,8.0,12.0,58,0.00,,---,0.10,VWS V14.01,2013-02-10 02:35:00,
2013-02-09 21:37:00,24.5,11.9,30.30,NW,317,6.0,6.0,58,0.00,,---,0.10,VWS V14.01,2013-02-10 02:37:00,
2013-02-09 21:40:00,23.1,10.5,30.32,NW,304,1.0,9.0,58,0.00,,---,0.10,VWS V14.01,2013-02-10 02:40:00,
2013-02-09 21:42:00,24.4,11.8,30.30,NNW,335,2.0,10.0,58,0.00,,---,0.10,VWS V14.01,2013-02-10 02:42:00,
2013-02-09 21:45:00,23.1,10.5,30.32,NNW,348,4.0,12.0,58,0.00,,---,0.10,VWS V14.01,2013-02-10 02:45:00,
2013-02-09 21:47:00,24.3,11.7,30.30,NW,321,3.0,9.0,58,0.00,,---,0.10,VWS V14.01,2013-02-10 02:47:00,
2013-02-09 21:50:00,23.0,10.1,30.32,NW,311,6.0,11.0,57,0.00,,---,0.10,VWS V14.01,2013-02-10 02:50:00,
2013-02-09 21:52:00,24.1,11.9,30.30,NW,317,5.0,9.0,59,0.00,,---,0.10,VWS V14.01,2013-02-10 02:52:00,
2013-02-09 21:55:00,22.9,10.4,30.32,NNW,327,5.0,12.0,58,0.00,,---,0.10,VWS V14.01,2013-02-10 02:55:00,
2013-02-09 21:57:00,24.0,11.8,30.30,NNW,348,7.0,7.0,59,0.00,,---,0.10,VWS V14.01,2013-02-10 02:57:00,
2013-02-09 22:00:00,22.8,10.2,30.32,WNW,297,10.0,12.0,58,0.00,,---,0.10,VWS V14.01,2013-02-10 03:00:00,
2013-02-09 22:02:00,23.9,11.3,30.30,NW,308,9.0,9.0,58,0.00,,---,0.10,VWS V14.01,2013-02-10 03:02:00,
2013-02-09 22:05:00,22.8,10.2,30.32,North,7,4.0,10.0,58,0.00,,---,0.10,VWS V14.01,2013-02-10 03:05:00,
2013-02-09 22:07:00,23.8,11.2,30.30,NW,321,5.0,8.0,58,0.00,,---,0.10,VWS V14.01,2013-02-10 03:07:00,
2013-02-09 22:10:00,22.8,10.2,30.32,NNW,327,4.0,11.0,58,0.00,,---,0.10,VWS V14.01,2013-02-10 03:10:00,
2013-02-09 22:12:00,23.6,11.4,30.30,WNW,298,6.0,9.0,59,0.00,,---,0.10,VWS V14.01,2013-02-10 03:12:00,
2013-02-09 22:15:00,22.5,10.0,30.32,NNW,335,3.0,8.0,58,0.00,,---,0.10,VWS V14.01,2013-02-10 03:15:00,
2013-02-09 22:17:00,23.5,10.9,30.30,NNW,335,8.0,19.0,58,0.00,,---,0.10,VWS V14.01,2013-02-10 03:17:00,
2013-02-09 22:20:00,22.3,9.8,30.32,WNW,299,7.0,9.0,58,0.00,,---,0.10,VWS V14.01,2013-02-10 03:20:00,
2013-02-09 22:22:00,23.6,11.0,30.31,NNW,333,6.0,8.0,58,0.00,,---,0.10,VWS V14.01,2013-02-10 03:22:00,
2013-02-09 22:25:00,22.3,9.8,30.32,NW,321,3.0,9.0,58,0.00,,---,0.10,VWS V14.01,2013-02-10 03:25:00,
2013-02-09 22:27:00,23.5,10.9,30.31,NW,324,7.0,8.0,58,0.00,,---,0.10,VWS V14.01,2013-02-10 03:27:00,
2013-02-09 22:30:00,22.2,9.7,30.32,NNW,331,4.0,8.0,58,0.00,,---,0.10,VWS V14.01,2013-02-10 03:30:00,
2013-02-09 22:32:00,23.3,10.7,30.31,NW,309,5.0,7.0,58,0.00,,---,0.10,VWS V14.01,2013-02-10 03:32:00,
2013-02-09 22:35:00,22.1,9.6,30.32,NNW,333,4.0,9.0,58,0.00,,---,0.10,VWS V14.01,2013-02-10 03:35:00,
2013-02-09 22:37:00,23.1,10.5,30.31,NNW,338,4.0,9.0,58,0.00,,---,0.10,VWS V14.01,2013-02-10 03:37:00,
2013-02-09 22:40:00,22.0,9.5,30.33,NW,323,1.0,10.0,58,0.00,,---,0.10,VWS V14.01,2013-02-10 03:40:00,
2013-02-09 22:42:00,23.1,10.5,30.32,NNW,333,5.0,12.0,58,0.00,,---,0.10,VWS V14.01,2013-02-10 03:42:00,
2013-02-09 22:45:00,21.8,9.7,30.33,WSW,257,5.0,8.0,59,0.00,,---,0.10,VWS V14.01,2013-02-10 03:45:00,
2013-02-09 22:47:00,23.0,10.4,30.32,NNW,340,11.0,11.0,58,0.00,,---,0.10,VWS V14.01,2013-02-10 03:47:00,
2013-02-09 22:50:00,21.7,10.0,30.33,NW,315,6.0,12.0,60,0.00,,---,0.10,VWS V14.01,2013-02-10 03:50:00,
2013-02-09 22:52:00,23.0,10.1,30.31,NNW,329,4.0,12.0,57,0.00,,---,0.10,VWS V14.01,2013-02-10 03:52:00,
2013-02-09 22:55:00,21.6,9.5,30.33,WNW,294,4.0,11.0,59,0.00,,---,0.10,VWS V14.01,2013-02-10 03:55:00,
2013-02-09 22:57:00,22.9,10.0,30.32,NNW,338,6.0,12.0,57,0.00,,---,0.10,VWS V14.01,2013-02-10 03:57:00,
2013-02-09 23:00:00,21.5,9.8,30.33,NW,305,7.0,9.0,60,0.00,,---,0.10,VWS V14.01,2013-02-10 04:00:00,
2013-02-09 23:02:00,22.8,10.2,30.32,NW,311,3.0,10.0,58,0.00,,---,0.10,VWS V14.01,2013-02-10 04:02:00,
2013-02-09 23:05:00,21.4,9.7,30.34,WNW,303,6.0,8.0,60,0.00,,---,0.00,VWS V14.01,2013-02-10 04:05:00,
2013-02-09 23:07:00,22.8,9.9,30.32,NNE,15,3.0,11.0,57,0.00,,---,0.10,VWS V14.01,2013-02-10 04:07:00,
2013-02-09 23:10:00,21.2,9.5,30.34,NNW,331,4.0,6.0,60,0.00,,---,0.00,VWS V14.01,2013-02-10 04:10:00,
2013-02-09 23:12:00,22.6,10.1,30.32,NW,313,5.0,6.0,58,0.00,,---,0.10,VWS V14.01,2013-02-10 04:12:00,
2013-02-09 23:15:00,21.2,9.5,30.34,NNW,327,2.0,10.0,60,0.00,,---,0.00,VWS V14.01,2013-02-10 04:15:00,
2013-02-09 23:17:00,22.4,9.9,30.32,NNW,329,6.0,7.0,58,0.00,,---,0.10,VWS V14.01,2013-02-10 04:17:00,
2013-02-09 23:20:00,20.9,9.6,30.34,NNW,331,3.0,9.0,61,0.00,,---,0.00,VWS V14.01,2013-02-10 04:20:00,
2013-02-09 23:22:00,22.4,9.9,30.32,NW,308,8.0,8.0,58,0.00,,---,0.10,VWS V14.01,2013-02-10 04:22:00,
2013-02-09 23:25:00,20.9,9.2,30.34,NW,320,3.0,12.0,60,0.00,,---,0.00,VWS V14.01,2013-02-10 04:25:00,
2013-02-09 23:27:00,22.3,9.8,30.32,NW,310,5.0,7.0,58,0.00,,---,0.10,VWS V14.01,2013-02-10 04:27:00,
2013-02-09 23:30:00,20.8,9.5,30.34,WNW,286,2.0,9.0,61,0.00,,---,0.00,VWS V14.01,2013-02-10 04:30:00,
2013-02-09 23:32:00,22.2,10.1,30.32,NW,317,6.0,6.0,59,0.00,,---,0.10,VWS V14.01,2013-02-10 04:32:00,
2013-02-09 23:35:00,20.7,9.4,30.34,NW,315,5.0,8.0,61,0.00,,---,0.00,VWS V14.01,2013-02-10 04:35:00,
2013-02-09 23:37:00,22.0,9.5,30.32,NW,317,4.0,10.0,58,0.00,,---,0.10,VWS V14.01,2013-02-10 04:37:00,
2013-02-09 23:40:00,20.5,9.2,30.35,NW,309,3.0,9.0,61,0.00,,---,0.00,VWS V14.01,2013-02-10 04:40:00,
2013-02-09 23:42:00,22.0,9.5,30.33,NW,317,6.0,8.0,58,0.00,,---,0.10,VWS V14.01,2013-02-10 04:42:00,
2013-02-09 23:45:00,20.4,9.5,30.35,NW,324,2.0,8.0,62,0.00,,---,0.00,VWS V14.01,2013-02-10 04:45:00,
2013-02-09 23:46:00,21.8,9.7,30.33,NW,311,5.0,12.0,59,0.00,,---,0.10,VWS V14.01,2013-02-10 04:46:00,
2013-02-09 23:50:00,20.4,9.1,30.35,NW,323,3.0,11.0,61,0.00,,---,0.00,VWS V14.01,2013-02-10 04:50:00,
2013-02-09 23:51:00,21.6,9.5,30.33,NW,309,7.0,8.0,59,0.00,,---,0.10,VWS V14.01,2013-02-10 04:51:00,
2013-02-09 23:55:00,20.4,9.1,30.35,NNW,344,7.0,10.0,61,0.00,,---,0.00,VWS V14.01,2013-02-10 04:55:00,
2013-02-09 23:56:00,21.6,9.5,30.33,WNW,302,4.0,9.0,59,0.00,,---,0.10,VWS V14.01,2013-02-10 04:56:00,